Location: *
(40.7190°N, 4.2480°W)
Time: 17:20:50
(UTC+00:00)

Lacrosse 5 - Pass Details

Date: 18 February 2020
Orbit: 715 x 724 km, 57.0° (Epoch: 21 March)

Event Time Altitude Azimuth Distance (km) Brightness Sun altitude
Exits shadow 05:26:52 22° 325° (NW) 1,537 3.3 -19.8°
Maximum altitude 05:30:06 67° 43° (NE) 782 2.1 -19.2°
Drops below altitude 10° 05:35:09 10° 126° (SE) 2,203 5.2 -18.2°
Sets 05:37:33 0° 129° (SE) 3,122 6.0 -17.8°
